Weather History for KAMW - May, 2012

Change the Weather History Date:

Wednesday, May 9, 2012

  Actual Average Record
Temperature  
Mean Temperature 58 °F 58 °F  
Max Temperature 68 °F 69 °F - ()
Min Temperature 47 °F 47 °F - ()
Degree Days  
Heating Degree Days 7 8  
Month to date heating degree days 20 81  
Since 1 July heating degree days 5306 6703  
Cooling Degree Days 0 1  
Month to date cooling degree days 34 4  
Year to date cooling degree days 59 7  
Growing Degree Days 6 (Base 50)    
Moisture  
Dew Point 44 °F    
Average Humidity 67    
Maximum Humidity 93    
Minimum Humidity 40    
Precipitation  
Precipitation 0.00 in 0.15 in - ()
Month to date precipitation 1.28  
Sea Level Pressure  
Sea Level Pressure 30.01 in    
Wind  
Wind Speed 8 mph (NNW)    
Max Wind Speed 17 mph    
Max Gust Speed 29 mph    
Visibility 10 miles    
Events      
T = Trace of Precipitation, MM = Missing Value Source: NWS Daily Summary

Daily Weather History Graph

Daily Weather History Graph

Search for Another Location

Airport or City:

Trip Planner

Search our weather history database for the weather conditions in past years. The results will help you decide how hot, cold, wet, or windy it might be!

Date:

Astronomy

May. 09, 2012 Rise Set
Actual Time 5:59 AM CDT 8:22 PM CDT
Civil Twilight 5:28 AM CDT 8:53 PM CDT
Nautical Twilight 4:49 AM CDT 9:32 PM CDT
Astronomical Twilight 4:06 AM CDT 10:16 PM CDT
Moon No Moon Rise 9:14 AM CDT (5/9)
Length of Visible Light 15h 25m
Length of Day
14h 22m
Waning Gibbous, 82% of the Moon is Illuminated
May 9
Waning Gibbous
May 12
Last Quarter
May 20
New
May 28
First Quarter
Jun 4
Full

Hourly Weather History & Observations

Time (CDT) Temp. Dew Point Humidity Pressure Visibility Wind Dir Wind Speed Gust Speed Precip Events Conditions
12:53 AM 50.0 °F 44.1 °F 80% 30.01 in 10.0 mi WNW 12.7 mph - N/A   Clear
1:53 AM 50.0 °F 44.1 °F 80% 30.00 in 10.0 mi NW 12.7 mph - N/A   Clear
2:53 AM 48.9 °F 44.1 °F 83% 29.99 in 10.0 mi NW 10.4 mph - N/A   Clear
3:53 AM 48.9 °F 44.1 °F 83% 30.00 in 10.0 mi NW 12.7 mph - N/A   Clear
4:53 AM 48.0 °F 44.1 °F 86% 30.01 in 10.0 mi NW 12.7 mph - N/A   Clear
5:53 AM 46.9 °F 44.1 °F 90% 30.02 in 10.0 mi NW 11.5 mph - N/A   Clear
6:53 AM 48.0 °F 45.0 °F 89% 30.04 in 9.0 mi NW 9.2 mph - N/A   Mostly Cloudy
7:14 AM 48.2 °F 44.6 °F 87% 30.05 in 9.0 mi NNW 16.1 mph 19.6 mph N/A   Overcast
7:53 AM 48.9 °F 46.0 °F 90% 30.05 in 7.0 mi NNW 16.1 mph - N/A   Overcast
8:53 AM 50.0 °F 46.9 °F 89% 30.06 in 8.0 mi NNW 9.2 mph - N/A   Overcast
9:53 AM 54.0 °F 48.0 °F 80% 30.06 in 9.0 mi NNW 10.4 mph - N/A   Mostly Cloudy
10:36 AM 55.4 °F 48.2 °F 77% 30.07 in 10.0 mi North 11.5 mph - N/A   Mostly Cloudy
10:53 AM 57.0 °F 48.0 °F 72% 30.06 in 10.0 mi North 13.8 mph - N/A   Scattered Clouds
11:53 AM 61.0 °F 48.9 °F 64% 30.05 in 10.0 mi NNW 10.4 mph - N/A   Partly Cloudy
12:53 PM 63.0 °F 46.9 °F 56% 30.04 in 10.0 mi NNE 9.2 mph - N/A   Mostly Cloudy
1:53 PM 64.0 °F 43.0 °F 46% 30.02 in 10.0 mi NNW 9.2 mph - N/A   Mostly Cloudy
2:53 PM 64.9 °F 43.0 °F 45% 30.01 in 10.0 mi NNW 10.4 mph - N/A   Mostly Cloudy
4:53 PM 64.0 °F 39.9 °F 41% 29.97 in 10.0 mi NW 5.8 mph - N/A   Partly Cloudy
5:53 PM 66.9 °F 43.0 °F 42% 29.96 in 10.0 mi North 9.2 mph - N/A   Partly Cloudy
6:53 PM 63.0 °F 42.1 °F 46% 29.96 in 10.0 mi North 9.2 mph - N/A   Clear
7:53 PM 62.1 °F 42.1 °F 48% 29.95 in 10.0 mi North 5.8 mph - N/A   Clear
8:53 PM 57.9 °F 41.0 °F 53% 29.96 in 10.0 mi NNE 4.6 mph - N/A   Clear
9:53 PM 55.9 °F 42.1 °F 60% 29.97 in 10.0 mi Calm Calm - N/A   Clear
10:53 PM 50.0 °F 44.1 °F 80% 29.98 in 10.0 mi Calm Calm - N/A   Clear
11:53 PM 50.0 °F 43.0 °F 77% 29.97 in 10.0 mi Calm Calm - N/A   Clear